Regional Weather Roundup
Issued by NWS Northern Indiana

Home | Current Version | Previous Version | Text Only | Print | Product List | Glossary Off
Versions: 1 2 3 4 5 6 7 8 9 10 11 12 13 14 15 16 17 18 19 20 21 22 23 24 25 26 27 28 29 30 31 32 33 34 35 36 37 38 39 40 41 42 43 44 45 46 47 48 49 50

000
ASUS43 KIWX 021400
RWRIWX

KIWX WEATHER ROUNDUP
NATIONAL WEATHER SERVICE NORTHERN INDIANA
1000 AM EDT THU JUL 02 2015

NOTE: "FAIR" INDICATES FEW OR NO CLOUDS BELOW 12,000 FEET WITH NO
SIGNIFICANT WEATHER AND/OR OBSTRUCTIONS TO VISIBILITY.

* THESE STATIONS ARE NOT UNDER NWS QUALITY CONTROL. THEY ALSO MAY NOT
  REPORT WEATHER SUCH AS PRECIPITATION OR FOG.

INZ001>027-021500-
NORTHERN INDIANA

CITY           SKY/WX    TMP DP  RH WIND       PRES   REMARKS
GARY*          PTSUNNY   64  57  77 NE14      29.99S
SOUTH BEND     SUNNY     66  56  70 NE8       30.00S
ELKHART*       SUNNY     64  55  72 E5        30.00R
GOSHEN         SUNNY     64  57  78 E12       29.98S
ANGOLA*          N/A     64  54  68 E8        29.98F
FORT WAYNE     CLOUDY    65  60  84 NE12      29.97R
PERU/GRISSOM   CLOUDY    62  57  85 NE7       29.94R

$$
INZ028>050-021500-
CENTRAL INDIANA

CITY           SKY/WX    TMP DP  RH WIND       PRES   REMARKS
LAFAYETTE      CLOUDY    60  55  83 N8        29.94S
KOKOMO*        CLOUDY    63  55  77 NE7       29.94S
MUNCIE*        CLOUDY    66  59  78 E5        29.94R
INDIANAPOLIS   CLOUDY    66  56  70 NE12      29.89F

$$
MIZ043>046-050>051-056>058-064>065-071>073-077>080-021500-
SOUTHWEST LOWER MICHIGAN

CITY           SKY/WX    TMP DP  RH WIND       PRES   REMARKS
BATTLE CREEK   CLOUDY    61  56  83 E5        30.02R
BENTON HARBOR  SUNNY     65  56  72 E7        30.01R
HOLLAND        CLOUDY    59  55  87 E6        30.05R
GRAND RAPIDS   MOSUNNY   63  55  75 E9        30.04R
KALAMAZOO      CLOUDY    60  55  83 VRB3      30.02R

$$
OHZ001>008-015>018-024>025-021500-
NORTHWEST OHIO

CITY           SKY/WX    TMP DP  RH WIND       PRES   REMARKS
DEFIANCE       CLOUDY    65  59  81 NE10      29.97S
FINDLAY        CLOUDY    66  60  81 NE13      29.96R
TOLEDO EXPRESS MOSUNNY   66  58  75 NE14      29.98S
TOLEDO METCALF   N/A    N/A N/A N/A MISG      29.99S
LIMA           PTSUNNY   65  61  87 E9        29.96R

$$
AND FOR LAKE MICHIGAN COASTAL AND OPEN LAKE BUOY OBSERVATIONS

STATION/POSITION TEMP    WIND        PRES    VSBY  WAVE
                 AIR SEA DIR/SP/G                  HT/PER
                 (F)     (DEG/KT/KT) (MB)    (MI)  (FT/S)
CALUMET HARBOR    60      10/  8/ 12   N/A
MICHIGAN CITY     58      20/  7/  8   N/A
BURNS HARBOR      60      60/ 10/ 11 1015.9R
SAINT JOSEPH      60     250/  1/  4   N/A
4 MI NW BRIDGMAN  58 62                N/A           2/ 4
MICHIGAN CITY     59 64   80/  8/ 12   N/A           3/ 5

$$
&&



USA.gov is the U.S. government's official web portal to all federal, state and local government web resources and services.